AC4QB Weather Reports


Display with metric or nautical units.
time (UTC)temp
F
wind
direction
speed
MPH
gust
MPH
rain 1hr
in
rain 24hr
in
rain mn
in
humidity
%
barometer
mb
20210924033930 65 337 0.0 0.0 0.00 0.00 0.00 70 1017.0
20210924032931 65 337 0.0 0.0 0.00 0.00 0.00 70 1017.0
20210924031930 65 337 0.0 0.0 0.00 0.00 0.00 71 1016.9
20210924030931 65 337 0.0 0.0 0.00 0.00 0.00 72 1016.9
20210924025929 65 337 0.0 0.0 0.00 0.00 0.00 71 1016.9
20210924024930 65 337 0.0 0.0 0.00 0.00 0.00 71 1016.8
20210924023930 65 337 0.0 0.0 0.00 0.00 0.00 71 1016.8
20210924022931 65 337 0.0 0.0 0.00 0.00 0.00 72 1016.8
20210924021930 66 337 0.0 0.0 0.00 0.00 0.00 73 1016.7
20210924020931 66 337 0.0 0.0 0.00 0.00 0.00 72 1016.6
20210924015929 67 337 0.0 0.0 0.00 0.00 0.00 68 1016.5
20210924014930 67 337 0.0 0.0 0.00 0.00 0.00 66 1016.5
20210924013930 67 337 0.0 0.0 0.00 0.00 0.00 62 1016.3
20210924012930 68 337 0.0 0.0 0.00 0.00 0.00 60 1016.2
20210924011930 68 337 0.0 0.0 0.00 0.00 0.00 60 1016.0
20210924010930 69 337 0.0 0.0 0.00 0.00 0.00 58 1016.0
20210924005928 69 337 0.0 0.0 0.00 0.00 0.00 56 1015.8
20210924004930 70 337 0.0 0.0 0.00 0.00 0.00 55 1015.6
20210924003930 70 337 0.0 0.0 0.00 0.00 0.00 54 1015.5
20210924002930 71 337 0.0 1.0 0.00 0.00 0.00 54 1015.5
20210924001930 71 338 1.0 3.0 0.00 0.00 0.00 53 1015.4
20210924000929 72 0 0.0 6.0 0.00 0.00 0.00 51 1015.3
20210923235928 72 2 2.0 6.0 0.00 0.00 0.00 50 1015.1
20210923234930 72 1 3.0 7.0 0.00 0.00 0.00 49 1015.0
20210923233930 73 342 4.0 7.0 0.00 0.00 0.00 48 1015.0
20210923232930 74 351 4.0 8.0 0.00 0.00 0.00 46 1014.9
20210923231930 74 345 5.0 9.0 0.00 0.00 0.00 45 1015.0
20210923230930 75 348 4.0 8.0 0.00 0.00 0.00 44 1014.9
20210923225928 75 355 5.0 12.0 0.00 0.00 0.00 44 1014.8
20210923224929 76 351 6.0 13.0 0.00 0.00 0.00 42 1014.7
20210923223931 76 334 6.0 13.0 0.00 0.00 0.00 40 1014.7
20210923222930 76 322 6.0 14.0 0.00 0.00 0.00 40 1014.6
20210923221930 76 345 6.0 17.0 0.00 0.00 0.00 40 1014.6
20210923220930 77 8 6.0 17.0 0.00 0.00 0.00 40 1014.6
20210923215927 77 19 7.0 10.0 0.00 0.00 0.00 37 1014.4
20210923214929 77 5 6.0 10.0 0.00 0.00 0.00 38 1014.4
20210923213930 77 3 7.0 13.0 0.00 0.00 0.00 38 1014.4
20210923212929 78 27 7.0 12.0 0.00 0.00 0.00 37 1014.3
20210923211930 77 356 9.0 15.0 0.00 0.00 0.00 37 1014.3
20210923210929 77 315 7.0 14.0 0.00 0.00 0.00 37 1014.3
20210923205928 78 15 7.0 10.0 0.00 0.00 0.00 38 1014.3
20210923204930 78 343 7.0 13.0 0.00 0.00 0.00 38 1014.3
20210923203929 77 26 8.0 14.0 0.00 0.00 0.00 38 1014.3
20210923202929 77 18 10.0 15.0 0.00 0.00 0.00 37 1014.3
20210923201929 77 32 9.0 15.0 0.00 0.00 0.00 35 1014.4
20210923200928 77 356 5.0 15.0 0.00 0.00 0.00 39 1014.4
20210923195927 77 359 9.0 17.0 0.00 0.00 0.00 38 1014.5
20210923194929 77 17 6.0 12.0 0.00 0.00 0.00 38 1014.5
20210923193929 77 355 9.0 14.0 0.00 0.00 0.00 38 1014.6
20210923192929 77 356 9.0 17.0 0.00 0.00 0.00 37 1014.7
20210923191929 77 21 7.0 14.0 0.00 0.00 0.00 39 1014.8
20210923190929 76 16 7.0 14.0 0.00 0.00 0.00 38 1014.9
20210923185927 76 359 9.0 14.0 0.00 0.00 0.00 39 1015.1
20210923184928 76 336 6.0 16.0 0.00 0.00 0.00 38 1015.2
20210923183929 75 310 9.0 15.0 0.00 0.00 0.00 38 1015.4
20210923182930 75 321 7.0 13.0 0.00 0.00 0.00 39 1015.5
20210923181929 75 8 7.0 12.0 0.00 0.00 0.00 39 1015.5
20210923180929 75 347 8.0 14.0 0.00 0.00 0.00 41 1015.6
20210923175927 75 358 7.0 13.0 0.00 0.00 0.00 42 1015.8
20210923174928 74 4 8.0 14.0 0.00 0.00 0.00 39 1016.0
20210923173928 74 11 7.0 14.0 0.00 0.00 0.00 42 1016.1
20210923172929 74 347 9.0 15.0 0.00 0.00 0.00 41 1016.1
20210923171929 74 355 3.0 10.0 0.00 0.00 0.00 45 1016.2
20210923170928 74 345 5.0 14.0 0.00 0.00 0.00 45 1016.3
20210923165927 73 28 6.0 14.0 0.00 0.00 0.00 48 1016.3
20210923164928 73 44 5.0 12.0 0.00 0.00 0.00 48 1016.4
20210923163928 72 36 9.0 13.0 0.00 0.00 0.00 47 1016.4
20210923163028 72 357 5.0 13.0 0.00 0.00 0.00 50 1016.5
20210923162029 71 356 9.0 14.0 0.00 0.00 0.00 49 1016.6
20210923161029 70 11 8.0 13.0 0.00 0.00 0.00 51 1016.7
20210923160027 70 7 7.0 14.0 0.00 0.00 0.00 52 1016.8
20210923155029 69 351 10.0 16.0 0.00 0.00 0.00 52 1016.7
20210923154028 69 9 6.0 16.0 0.00 0.00 0.00 52 1016.7
20210923153028 69 349 10.0 15.0 0.00 0.00 0.00 51 1016.7
20210923152028 68 20 9.0 16.0 0.00 0.00 0.00 54 1016.7
20210923151028 68 15 10.0 18.0 0.00 0.00 0.00 53 1016.8
20210923150026 68 19 9.0 17.0 0.00 0.00 0.00 53 1016.7
20210923145028 67 25 12.0 18.0 0.00 0.00 0.00 53 1016.7
20210923144029 68 1 8.0 14.0 0.00 0.00 0.00 54 1016.6
20210923143028 67 3 10.0 18.0 0.00 0.00 0.00 56 1016.6
20210923142028 66 8 12.0 20.0 0.00 0.00 0.00 54 1016.5
20210923141028 66 16 8.0 18.0 0.00 0.00 0.00 57 1016.4
20210923140026 66 12 11.0 17.0 0.00 0.00 0.00 56 1016.4
20210923135028 65 356 9.0 20.0 0.00 0.00 0.00 58 1016.3
20210923134028 65 2 11.0 20.0 0.00 0.00 0.00 58 1016.2
20210923133028 65 5 12.0 21.0 0.00 0.00 0.00 61 1016.1
20210923132027 64 5 8.0 16.0 0.00 0.00 0.00 64 1016.0
20210923131028 63 353 9.0 15.0 0.00 0.00 0.00 67 1016.1
20210923130027 63 348 7.0 13.0 0.00 0.00 0.00 72 1016.1
20210923125028 63 1 6.0 9.0 0.00 0.00 0.00 73 1016.1
20210923124027 62 3 7.0 9.0 0.00 0.00 0.00 73 1016.0
20210923123028 62 0 7.0 10.0 0.00 0.00 0.00 72 1015.9
20210923122029 62 6 6.0 10.0 0.00 0.00 0.00 73 1015.9
20210923121028 62 5 6.0 12.0 0.00 0.00 0.00 73 1015.9
20210923120026 61 14 6.0 12.0 0.00 0.00 0.00 74 1015.8
20210923115027 61 15 7.0 13.0 0.00 0.00 0.00 74 1015.7
20210923114027 61 9 5.0 10.0 0.00 0.00 0.00 76 1015.7
20210923113027 61 6 4.0 10.0 0.00 0.00 0.00 77 1015.7
20210923112027 61 5 5.0 10.0 0.00 0.00 0.00 77 1015.5
20210923111028 62 6 6.0 13.0 0.00 0.00 0.00 77 1015.5
20210923110027 62 16 8.0 14.0 0.00 0.00 0.00 77 1015.4
20210923105028 62 12 7.0 14.0 0.00 0.00 0.00 77 1015.3
20210923104027 62 19 5.0 14.0 0.00 0.00 0.00 77 1015.3
20210923103027 62 7 7.0 14.0 0.00 0.00 0.00 76 1015.2
20210923102027 63 12 7.0 14.0 0.00 0.00 0.00 76 1015.2
20210923101027 63 1 8.0 14.0 0.00 0.00 0.00 76 1015.1
20210923100026 63 3 8.0 13.0 0.00 0.00 0.00 76 1014.9
20210923095028 63 12 6.0 13.0 0.00 0.00 0.00 76 1014.8
20210923094027 63 13 6.0 14.0 0.00 0.00 0.00 76 1014.6
20210923093028 63 7 8.0 13.0 0.00 0.00 0.00 76 1014.6
20210923092028 64 5 7.0 15.0 0.00 0.00 0.00 75 1014.5
20210923091027 64 5 9.0 15.0 0.00 0.00 0.00 74 1014.5
20210923090025 64 10 7.0 15.0 0.00 0.00 0.00 74 1014.5
20210923085028 64 355 9.0 17.0 0.00 0.00 0.00 74 1014.4
20210923084027 64 7 8.0 15.0 0.00 0.00 0.00 74 1014.4
20210923083027 64 353 7.0 17.0 0.00 0.00 0.00 74 1014.3
20210923082027 65 354 7.0 16.0 0.00 0.00 0.00 73 1014.4
20210923081027 65 8 9.0 14.0 0.00 0.00 0.00 73 1014.4
20210923080025 65 356 7.0 14.0 0.00 0.00 0.00 73 1014.5
20210923075027 65 358 7.0 14.0 0.00 0.00 0.00 73 1014.5
20210923074026 65 356 8.0 15.0 0.00 0.00 0.00 73 1014.6
20210923073026 65 353 6.0 13.0 0.00 0.00 0.00 74 1014.6
20210923072027 65 351 8.0 12.0 0.00 0.00 0.00 73 1014.8
20210923071027 65 347 9.0 15.0 0.00 0.00 0.00 73 1014.9
20210923070026 66 356 7.0 13.0 0.00 0.00 0.00 72 1015.0
20210923065027 66 4 7.0 13.0 0.00 0.00 0.00 72 1015.1
20210923064027 66 358 6.0 12.0 0.00 0.00 0.00 71 1015.1
20210923063027 66 356 9.0 13.0 0.00 0.00 0.00 71 1015.1
20210923062027 66 355 7.0 12.0 0.00 0.00 0.00 70 1015.2
20210923061027 67 347 6.0 12.0 0.00 0.00 0.00 70 1015.2
20210923060026 67 353 6.0 10.0 0.00 0.00 0.00 69 1015.4
20210923055028 67 345 7.0 10.0 0.00 0.00 0.00 69 1015.4
20210923054027 67 12 6.0 10.0 0.00 0.00 0.00 69 1015.4
20210923053027 67 18 6.0 13.0 0.00 0.00 0.00 68 1015.5
20210923052026 68 4 7.0 12.0 0.00 0.00 0.00 68 1015.5
20210923051026 68 11 7.0 12.0 0.00 0.00 0.00 67 1015.6
20210923050025 68 13 6.0 13.0 0.00 0.00 0.00 67 1015.7
20210923045027 68 15 7.0 13.0 0.00 0.00 0.00 66 1015.7
20210923044026 69 11 7.0 13.0 0.00 0.00 0.00 66 1015.7
20210923043026 69 0 7.0 15.0 0.00 0.00 0.00 66 1015.7
20210923042026 69 5 8.0 18.0 0.00 0.00 0.00 65 1015.7
20210923041027 69 12 10.0 17.0 0.00 0.00 0.00 65 1015.7
20210923040025 70 1 13.0 18.0 0.00 0.00 0.00 64 1015.7
20210923035027 70 352 11.0 17.0 0.00 0.00 0.00 64 1015.8